Home   Weather   Warren   Past weeks

Flag for USA Past Weather in Warren, Michigan, USA — Yesterday and Last 2 Weeks

Now
28 °F

Mostly cloudy.


Feels Like: 19 °F
Forecast: 22 / 28 °F
Wind: 10 mph from West

Location: Detroit City Airport

Current Time: Dec 10, 2016 at 3:50:30 pm

Latest Report: Dec 10, 2016 at 2:53 pm


Visibility: 10 mi

Pressure: 30.42 "Hg

Humidity: 58%

Dew Point: 15 °F

Location of WarrenLocation

Past Weather in Warren — Graph

°F

Warren Temperature Yesterday

Maximum temperature yesterday: 32 °F (at 1:53 pm)
Minimum temperature yesterday: 26 °F (at 12:53 am)
Average temperature yesterday: 28 °F

High & Low Weather Summary for the Past Weeks

 TemperatureHumidityPressure
High57 °F (Nov 30, 12:53 pm)100% (Nov 27, 8:53 am)30.49 "Hg (Nov 27, 8:53 am)
Low23 °F (Dec 10, 8:02 am)45% (Dec 9, 1:53 pm)29.42 "Hg (Nov 29, 12:53 am)
Average38 °F78%30.02 "Hg
* Reported Nov 25 1:53 pm — Dec 10 1:53 pm, Warren, Weather by CustomWeather, © 2016

Note: Actual official high and low records may vary slightly from our data, if they occured in-between our weather recording intervals... More about our weather records

Advertising

Warren Weather History for the Previous 24 Hours

Scroll right to see more
 ConditionsComfort  
Time TempWeatherWind HumidityBarometerVisibility
1:53 pm
Sat, Dec 10
28 °FMostly cloudy.10 mph61%30.42 "Hg10 mi
12:53 pm27 °FMostly cloudy.14 mph69%30.44 "Hg10 mi
11:53 am26 °FPartly sunny.13 mph69%30.46 "Hg10 mi
10:53 am26 °FPassing clouds.16 mph66%30.47 "Hg10 mi
9:53 am25 °FPartly sunny.13 mph69%30.48 "Hg10 mi
8:53 am23 °FOvercast.9 mph81%30.49 "Hg10 mi
8:02 am23 °FScattered clouds.8 mph78%30.44 "Hg10 mi
6:53 am24 °FMostly cloudy.7 mph81%30.46 "Hg10 mi
5:53 am25 °FOvercast.8 mph78%30.45 "Hg10 mi
4:53 am24 °FOvercast.9 mph84%30.44 "Hg10 mi
3:53 am24 °FOvercast.8 mph84%30.44 "Hg10 mi
2:53 am25 °FOvercast.12 mph75%30.43 "Hg10 mi
1:53 am25 °FOvercast.8 mph75%30.42 "Hg10 mi
12:53 am25 °FOvercast.8 mph78%30.42 "Hg10 mi
11:53 pm
Fri, Dec 9
26 °FOvercast.9 mph66%30.43 "Hg10 mi
10:53 pm26 °FOvercast.8 mph71%30.43 "Hg10 mi
9:53 pm27 °FOvercast.10 mph69%30.43 "Hg10 mi
8:53 pm27 °FOvercast.9 mph66%30.43 "Hg10 mi
7:53 pm27 °FOvercast.6 mph72%30.43 "Hg10 mi
6:53 pm28 °FOvercast.12 mph61%30.42 "Hg10 mi
5:53 pm29 °FOvercast.12 mph56%30.42 "Hg10 mi
4:53 pm30 °FMore clouds than sun.10 mph51%30.40 "Hg10 mi
3:53 pm31 °FOvercast.8 mph45%30.39 "Hg10 mi
Weather by CustomWeather, © 2016

See weather overviewHow to use our weather pages